| time (UTC) | temp F | wind direction | speed MPH | gust MPH | rain 1hr in | rain 24hr in | rain mn in | humidity % | barometer mb |
| 20260903184507 | 71 | 57 | 2.0 | 3.0 | 0.00 | 0.00 | 0.00 | 18 | 992.0 |
| 20260903183005 | 71 | 136 | 2.0 | 5.0 | 0.00 | 0.00 | 0.00 | 18 | 991.2 |
| 20260903182504 | 71 | 91 | 3.0 | 5.0 | 0.00 | 0.00 | 0.00 | 18 | 992.2 |
| 20260903175005 | 71 | 86 | 2.0 | 2.0 | 0.00 | 0.00 | 0.00 | 20 | 991.5 |
| 20260903171007 | 70 | 161 | 3.0 | 4.0 | 0.00 | 0.00 | 0.00 | 18 | 992.2 |
| 20260903164003 | 70 | 77 | 2.0 | 3.0 | 0.00 | 0.00 | 0.00 | 18 | 992.4 |
| 20260903162507 | 68 | 27 | 1.0 | 2.0 | 0.00 | 0.00 | 0.00 | 21 | 992.8 |
| 20260903154002 | 68 | 81 | 2.0 | 2.0 | 0.00 | 0.00 | 0.00 | 22 | 991.3 |
| 20260903150003 | 70 | 113 | 2.0 | 3.0 | 0.00 | 0.00 | 0.00 | 20 | 990.8 |
| 20260903145508 | 70 | 94 | 2.0 | 3.0 | 0.00 | 0.00 | 0.00 | 20 | 990.1 |
| 20260903144006 | 69 | 89 | 3.0 | 3.0 | 0.00 | 0.00 | 0.00 | 20 | 991.8 |
| 20260903142004 | 69 | 95 | 3.0 | 4.0 | 0.00 | 0.00 | 0.00 | 18 | 991.5 |
| 20260903141503 | 69 | 72 | 2.0 | 3.0 | 0.00 | 0.00 | 0.00 | 21 | 991.6 |
| 20260903141008 | 68 | 63 | 2.0 | 3.0 | 0.00 | 0.00 | 0.00 | 23 | 991.1 |
| 20260903135507 | 68 | 52 | 2.0 | 3.0 | 0.00 | 0.00 | 0.00 | 22 | 991.3 |
| 20260903133504 | 68 | 59 | 3.0 | 4.0 | 0.00 | 0.00 | 0.00 | 20 | 991.7 |
| 20260903131502 | 67 | 67 | 2.0 | 2.0 | 0.00 | 0.00 | 0.00 | 20 | 991.4 |
| 20260903131008 | 67 | 86 | 2.0 | 2.0 | 0.00 | 0.00 | 0.00 | 20 | 991.6 |
| 20260903130507 | 67 | 104 | 1.0 | 2.0 | 0.00 | 0.00 | 0.00 | 21 | 991.6 |
| 20260903125506 | 69 | 81 | 2.0 | 2.0 | 0.00 | 0.00 | 0.00 | 19 | 991.2 |
| 20260903124004 | 69 | 75 | 2.0 | 2.0 | 0.00 | 0.00 | 0.00 | 17 | 990.6 |
| 20260903094508 | 67 | 140 | 2.0 | 3.0 | 0.00 | 0.00 | 0.00 | 16 | 992.2 |
| 20260903084507 | 68 | 80 | 2.0 | 2.0 | 0.00 | 0.00 | 0.00 | 16 | 992.5 |
| 20260903081008 | 69 | 97 | 2.0 | 2.0 | 0.00 | 0.00 | 0.00 | 12 | 992.5 |
| 20260903074005 | 69 | 92 | 1.0 | 2.0 | 0.00 | 0.00 | 0.00 | 11 | 992.6 |
| 20260903072509 | 67 | 102 | 1.0 | 1.0 | 0.00 | 0.00 | 0.00 | 14 | 990.3 |
| 20260903072009 | 67 | 108 | 1.0 | 2.0 | 0.00 | 0.00 | 0.00 | 15 | 990.9 |
| 20260903070006 | 66 | 99 | 1.0 | 2.0 | 0.00 | 0.00 | 0.00 | 16 | 990.0 |
| 20260903063509 | 65 | 148 | 1.0 | 2.0 | 0.00 | 0.00 | 0.00 | 19 | 992.5 |
| 20260903061507 | 64 | 185 | 2.0 | 5.0 | 0.00 | 0.00 | 0.00 | 19 | 992.3 |
| 20260903055010 | 63 | 264 | 2.0 | 4.0 | 0.00 | 0.00 | 0.00 | 20 | 991.9 |
| 20260903053508 | 63 | 261 | 1.0 | 4.0 | 0.00 | 0.00 | 0.00 | 20 | 992.7 |
| 20260903050505 | 64 | 166 | 1.0 | 2.0 | 0.00 | 0.00 | 0.00 | 19 | 992.5 |
| 20260903044508 | 64 | 350 | 1.0 | 2.0 | 0.00 | 0.00 | 0.00 | 19 | 992.8 |
| 20260903043006 | 64 | 32 | 1.0 | 2.0 | 0.00 | 0.00 | 0.00 | 22 | 992.8 |
| 20260903035507 | 63 | 340 | 2.0 | 4.0 | 0.00 | 0.00 | 0.00 | 17 | 993.2 |
| 20260903032509 | 64 | 305 | 1.0 | 1.0 | 0.00 | 0.00 | 0.00 | 13 | 992.3 |
| 20260903031007 | 64 | 185 | 2.0 | 2.0 | 0.00 | 0.00 | 0.00 | 11 | 991.5 |
| 20260903015504 | 64 | 106 | 1.0 | 2.0 | 0.00 | 0.00 | 0.00 | 22 | 992.4 |
| 20260903015009 | 64 | 300 | 1.0 | 1.0 | 0.00 | 0.00 | 0.00 | 25 | 991.6 |
| 20260903011505 | 63 | 27 | 1.0 | 2.0 | 0.00 | 0.00 | 0.00 | 31 | 992.1 |
| 20260903010009 | 66 | 355 | 3.0 | 4.0 | 0.00 | 0.00 | 0.00 | 18 | 991.7 |
| 20260903000509 | 72 | 76 | 2.0 | 2.0 | 0.00 | 0.00 | 0.00 | 11 | 992.2 |
| 20260902223009 | 70 | 52 | 3.0 | 5.0 | 0.00 | 0.00 | 0.00 | 16 | 993.0 |
| 20260902212508 | 72 | 350 | 2.0 | 3.0 | 0.00 | 0.00 | 0.00 | 11 | 994.0 |
| 20260902211006 | 75 | 211 | 2.0 | 6.0 | 0.00 | 0.00 | 0.00 | 10 | 992.9 |